EW3608 Weather Reports


time (UTC)temp
C
wind
direction
speed
KPH
gust
KPH
rain 1hr
cm
rain 24hr
cm
rain mn
cm
humidity
%
barometer
mb
20260905132010 15 194 0.0 3.2 0.00 0.00 0.00 64 1018.6
20260905131535 15 194 0.0 3.2 0.00 0.00 0.00 64 1018.5
20260905131014 15 194 0.0 3.2 0.00 0.00 0.00 63 1018.5
20260905130515 14 195 0.0 3.2 0.00 0.00 0.00 62 1018.4
20260905130031 14 195 0.0 3.2 0.00 0.00 0.00 63 1018.4
20260905125517 14 193 0.0 3.2 0.00 0.00 0.00 63 1018.4
20260905125009 14 192 0.0 3.2 0.00 0.00 0.00 60 1018.2
20260905124515 14 192 0.0 3.2 0.00 0.00 0.00 63 1018.1
20260905124015 14 198 0.0 3.2 0.00 0.00 0.00 64 1018.0
20260905123512 14 198 0.0 3.2 0.00 0.00 0.00 64 1018.0
20260905123037 14 208 0.0 3.2 0.00 0.00 0.00 64 1017.9
20260905122515 14 208 0.0 3.2 0.00 0.00 0.00 64 1017.9
20260905122018 14 208 0.0 3.2 0.00 0.00 0.00 64 1017.9
20260905121509 14 217 0.0 3.2 0.00 0.00 0.00 64 1017.9
20260905121006 15 213 0.0 3.2 0.00 0.00 0.00 64 1017.9
20260905120507 15 213 0.0 3.2 0.00 0.00 0.00 63 1017.9
20260905120021 15 192 0.0 3.2 0.00 0.00 0.00 63 1017.9
20260905115505 15 193 0.0 3.2 0.00 0.00 0.00 63 1018.0
20260905115003 15 182 0.0 1.6 0.00 0.00 0.00 62 1018.0
20260905114514 15 191 0.0 3.2 0.00 0.00 0.00 61 1018.0
20260905114004 15 215 0.0 3.2 0.00 0.00 0.00 61 1018.0
20260905113507 15 215 0.0 3.2 0.00 0.00 0.00 60 1018.1
20260905113014 16 215 0.0 3.2 0.00 0.00 0.00 59 1018.1
20260905112508 16 215 0.0 3.2 0.00 0.00 0.00 58 1018.1
20260905112012 16 223 0.0 3.2 0.00 0.00 0.00 56 1018.1
20260905111504 16 223 0.0 3.2 0.00 0.00 0.00 56 1018.2
20260905111003 16 223 0.0 1.6 0.00 0.00 0.00 56 1018.3
20260905110505 17 227 0.0 3.2 0.00 0.00 0.00 54 1018.2
20260905110007 17 227 0.0 3.2 0.00 0.00 0.00 54 1018.2
20260905105508 17 227 0.0 3.2 0.00 0.00 0.00 53 1018.1
20260905105008 17 227 0.0 3.2 0.00 0.00 0.00 53 1018.0
20260905104518 18 350 0.0 4.8 0.00 0.00 0.00 52 1018.0
20260905104008 18 350 1.6 4.8 0.00 0.00 0.00 51 1018.0
20260905103504 18 291 0.0 3.2 0.00 0.00 0.00 49 1017.8
20260905103006 18 286 0.0 3.2 0.00 0.00 0.00 49 1017.8
20260905102504 18 288 0.0 3.2 0.00 0.00 0.00 48 1017.8
20260905102003 18 227 0.0 3.2 0.00 0.00 0.00 47 1017.8
20260905101514 18 264 0.0 3.2 0.00 0.00 0.00 47 1017.8
20260905101010 18 344 0.0 6.4 0.00 0.00 0.00 46 1017.7
20260905100510 18 252 1.6 6.4 0.00 0.00 0.00 45 1017.7
20260905100021 18 181 1.6 9.7 0.00 0.00 0.00 48 1017.7
20260905095503 17 198 1.6 9.7 0.00 0.00 0.00 50 1017.5
20260905095007 16 229 1.6 6.4 0.00 0.00 0.00 53 1017.5
20260905094506 16 188 1.6 3.2 0.00 0.00 0.00 55 1017.6
20260905094007 16 132 0.0 3.2 0.00 0.00 0.00 55 1017.5
20260905093509 16 118 0.0 3.2 0.00 0.00 0.00 55 1017.4
20260905093018 16 202 0.0 1.6 0.00 0.00 0.00 54 1017.3
20260905092511 16 203 0.0 3.2 0.00 0.00 0.00 54 1017.3
20260905092016 16 198 0.0 3.2 0.00 0.00 0.00 54 1017.2
20260905091506 16 170 0.0 3.2 0.00 0.00 0.00 53 1017.3
20260905091004 17 170 0.0 3.2 0.00 0.00 0.00 53 1017.3
20260905090012 17 185 0.0 3.2 0.00 0.00 0.00 52 1017.2
20260905085510 17 185 0.0 3.2 0.00 0.00 0.00 51 1017.1
20260905085009 17 183 0.0 3.2 0.00 0.00 0.00 52 1017.2
20260905084519 17 183 0.0 3.2 0.00 0.00 0.00 51 1017.1
20260905084012 17 183 0.0 3.2 0.00 0.00 0.00 51 1017.1
20260905083503 17 183 0.0 3.2 0.00 0.00 0.00 49 1017.1
20260905083009 17 183 0.0 3.2 0.00 0.00 0.00 49 1017.2
20260905082504 18 183 0.0 3.2 0.00 0.00 0.00 49 1017.2
20260905082009 18 186 0.0 3.2 0.00 0.00 0.00 49 1017.1
20260905081517 18 178 0.0 3.2 0.00 0.00 0.00 47 1017.1
20260905081009 18 159 0.0 3.2 0.00 0.00 0.00 47 1017.1
20260905080513 18 175 0.0 3.2 0.00 0.00 0.00 49 1017.1
20260905080023 18 174 0.0 3.2 0.00 0.00 0.00 48 1017.1
20260905075503 18 187 0.0 3.2 0.00 0.00 0.00 49 1017.1
20260905075004 18 169 0.0 3.2 0.00 0.00 0.00 49 1017.1
20260905074509 18 180 0.0 3.2 0.00 0.00 0.00 49 1017.1
20260905074008 18 108 0.0 3.2 0.00 0.00 0.00 49 1017.2
20260905073508 18 121 1.6 3.2 0.00 0.00 0.00 49 1017.1
20260905073023 18 191 1.6 4.8 0.00 0.00 0.00 47 1017.0
20260905072515 18 257 1.6 6.4 0.00 0.00 0.00 48 1017.0
20260905072011 18 236 0.0 6.4 0.00 0.00 0.00 49 1016.9
20260905071506 18 269 1.6 3.2 0.00 0.00 0.00 49 1017.0
20260905071003 18 219 0.0 3.2 0.00 0.00 0.00 50 1017.1
20260905070506 18 128 0.0 3.2 0.00 0.00 0.00 50 1017.1
20260905070016 18 123 0.0 3.2 0.00 0.00 0.00 49 1017.1
20260905065510 18 225 0.0 3.2 0.00 0.00 0.00 49 1017.2
20260905065014 18 232 0.0 3.2 0.00 0.00 0.00 48 1017.1
20260905064524 18 245 0.0 3.2 0.00 0.00 0.00 47 1017.1
20260905064012 18 213 0.0 3.2 0.00 0.00 0.00 48 1017.1
20260905063504 18 179 0.0 3.2 0.00 0.00 0.00 49 1017.2
20260905063008 18 198 0.0 3.2 0.00 0.00 0.00 49 1017.1
20260905062507 18 172 0.0 3.2 0.00 0.00 0.00 50 1017.1
20260905062007 18 164 0.0 3.2 0.00 0.00 0.00 49 1017.1
20260905061530 18 171 0.0 3.2 0.00 0.00 0.00 49 1017.0
20260905061011 19 171 0.0 3.2 0.00 0.00 0.00 48 1016.9
20260905060514 19 162 0.0 3.2 0.00 0.00 0.00 47 1016.9
20260905060046 20 157 0.0 3.2 0.00 0.00 0.00 47 1017.0
20260905055504 20 157 0.0 3.2 0.00 0.00 0.00 46 1016.9
20260905055006 20 157 0.0 3.2 0.00 0.00 0.00 46 1016.9
20260905054521 20 157 0.0 3.2 0.00 0.00 0.00 45 1017.1
20260905054008 21 157 0.0 3.2 0.00 0.00 0.00 44 1017.1
20260905053512 21 157 0.0 3.2 0.00 0.00 0.00 43 1017.0
20260905053028 21 157 0.0 3.2 0.00 0.00 0.00 41 1017.0
20260905052511 22 163 0.0 3.2 0.00 0.00 0.00 39 1017.0
20260905052015 22 239 0.0 3.2 0.00 0.00 0.00 38 1016.9
20260905051525 22 255 0.0 3.2 0.00 0.00 0.00 36 1016.9
20260905051005 22 246 0.0 3.2 0.00 0.00 0.00 36 1016.9
20260905050509 22 289 0.0 3.2 0.00 0.00 0.00 36 1017.0
20260905050019 22 290 0.0 3.2 0.00 0.00 0.00 37 1017.0
20260905045516 22 275 0.0 3.2 0.00 0.00 0.00 37 1017.1
20260905045014 22 329 0.0 3.2 0.00 0.00 0.00 37 1017.1
20260905044527 22 319 0.0 3.2 0.00 0.00 0.00 37 1017.1
20260905044014 22 257 0.0 3.2 0.00 0.00 0.00 37 1017.0
20260905043509 22 252 0.0 1.6 0.00 0.00 0.00 38 1016.9
20260905043014 22 250 0.0 3.2 0.00 0.00 0.00 36 1016.9
20260905042509 23 240 0.0 3.2 0.00 0.00 0.00 36 1016.9
20260905042010 23 240 0.0 3.2 0.00 0.00 0.00 36 1016.9
20260905041527 23 268 0.0 3.2 0.00 0.00 0.00 37 1016.9
20260905041013 23 269 0.0 3.2 0.00 0.00 0.00 36 1017.0
20260905040513 23 269 0.0 3.2 0.00 0.00 0.00 37 1017.1
20260905040030 23 267 0.0 3.2 0.00 0.00 0.00 36 1017.1
20260905035506 23 337 0.0 3.2 0.00 0.00 0.00 37 1017.2
20260905035006 24 335 0.0 3.2 0.00 0.00 0.00 34 1017.1
20260905034516 24 335 0.0 3.2 0.00 0.00 0.00 36 1017.2
20260905034010 24 335 0.0 0.0 0.00 0.00 0.00 34 1017.2
20260905033511 25 335 0.0 3.2 0.00 0.00 0.00 35 1017.2
20260905033026 25 335 0.0 3.2 0.00 0.00 0.00 34 1017.2
20260905032513 25 67 0.0 3.2 0.00 0.00 0.00 32 1017.1
20260905032013 26 65 0.0 3.2 0.00 0.00 0.00 34 1017.1
20260905031515 26 67 0.0 3.2 0.00 0.00 0.00 32 1017.1
20260905031010 26 316 0.0 6.4 0.00 0.00 0.00 31 1017.0
20260905030510 26 300 1.6 6.4 0.00 0.00 0.00 30 1016.9
20260905030021 26 343 1.6 6.4 0.00 0.00 0.00 31 1016.9
20260905025511 26 9 0.0 3.2 0.00 0.00 0.00 31 1016.9
20260905025016 26 9 0.0 1.6 0.00 0.00 0.00 32 1016.9
20260905024553 26 9 0.0 3.2 0.00 0.00 0.00 34 1016.8
20260905024013 26 5 0.0 3.2 0.00 0.00 0.00 34 1016.7
20260905023508 26 110 0.0 3.2 0.00 0.00 0.00 36 1016.6
20260905023019 25 352 0.0 3.2 0.00 0.00 0.00 35 1016.4
20260905022508 25 212 0.0 3.2 0.00 0.00 0.00 36 1016.3
20260905022012 25 243 0.0 3.2 0.00 0.00 0.00 35 1016.3
20260905021528 25 109 0.0 3.2 0.00 0.00 0.00 37 1016.2
20260905021013 25 269 0.0 3.2 0.00 0.00 0.00 35 1016.1
20260905020514 25 259 0.0 3.2 0.00 0.00 0.00 35 1016.1
20260905020033 25 110 0.0 3.2 0.00 0.00 0.00 37 1016.1
20260905015507 26 340 0.0 3.2 0.00 0.00 0.00 36 1015.9
20260905015008 26 232 1.6 3.2 0.00 0.00 0.00 35 1015.9
20260905014518 26 119 0.0 3.2 0.00 0.00 0.00 34 1015.9
20260905014015 27 119 0.0 3.2 0.00 0.00 0.00 34 1015.8
20260905013515 27 119 0.0 3.2 0.00 0.00 0.00 33 1015.7
20260905013027 27 119 0.0 0.0 0.00 0.00 0.00 32 1015.7
20260905012517 28 119 0.0 1.6 0.00 0.00 0.00 31 1015.7
20260905012017 28 119 0.0 1.6 0.00 0.00 0.00 30 1015.6
20260905011512 28 119 0.0 1.6 0.00 0.00 0.00 30 1015.6
20260905011009 29 119 0.0 0.0 0.00 0.00 0.00 30 1015.6
20260905010512 29 119 0.0 0.0 0.00 0.00 0.00 29 1015.6
20260905010023 30 119 0.0 0.0 0.00 0.00 0.00 28 1015.6
20260905005515 30 119 0.0 3.2 0.00 0.00 0.00 27 1015.5
20260905005014 30 119 0.0 3.2 0.00 0.00 0.00 27 1015.5
20260905004532 30 119 0.0 3.2 0.00 0.00 0.00 26 1015.5
20260905004016 31 122 0.0 3.2 0.00 0.00 0.00 26 1015.5
20260905003508 31 111 0.0 3.2 0.00 0.00 0.00 25 1015.5
20260905003018 31 95 0.0 3.2 0.00 0.00 0.00 24 1015.5
20260905002503 31 84 0.0 4.8 0.00 0.00 0.00 24 1015.5
20260905002003 32 100 0.0 4.8 0.00 0.00 0.00 23 1015.4
20260905001504 32 92 0.0 4.8 0.00 0.00 0.00 22 1015.4
20260905001004 32 146 0.0 4.8 0.00 0.00 0.00 23 1015.4
20260905000504 32 92 1.6 8.0 0.00 0.00 0.00 22 1015.4
20260905000008 33 85 1.6 11.3 0.00 0.00 0.00 21 1015.4
20260904235510 33 65 3.2 11.3 0.00 0.00 0.00 20 1015.3
20260904235012 33 194 0.0 4.8 0.00 0.00 0.00 17 1015.2
20260904234503 33 40 1.6 4.8 0.00 0.00 0.00 18 1015.2
20260904234003 33 127 0.0 4.8 0.00 0.00 0.00 18 1015.1
20260904233504 33 74 3.2 4.8 0.00 0.00 0.00 17 1015.1
20260904233006 33 24 3.2 4.8 0.00 0.00 0.00 17 1015.1
20260904232506 33 351 1.6 6.4 0.00 0.00 0.00 17 1015.1
20260904232006 34 44 4.8 6.4 0.00 0.00 0.00 18 1015.0
20260904231513 34 69 1.6 6.4 0.00 0.00 0.00 18 1015.0
20260904231009 33 46 0.0 4.8 0.00 0.00 0.00 19 1015.0
20260904230502 33 119 0.0 4.8 0.00 0.00 0.00 18 1015.0
20260904230004 33 52 3.2 4.8 0.00 0.00 0.00 18 1015.1
20260904225502 33 51 1.6 3.2 0.00 0.00 0.00 18 1015.1
20260904225005 33 38 0.0 4.8 0.00 0.00 0.00 19 1015.2
20260904224508 33 59 0.0 4.8 0.00 0.00 0.00 18 1015.2
20260904224008 33 32 1.6 8.0 0.00 0.00 0.00 18 1015.2
20260904223511 34 165 0.0 8.0 0.00 0.00 0.00 18 1015.2
20260904223023 34 120 1.6 8.0 0.00 0.00 0.00 17 1015.2
20260904222507 34 66 3.2 8.0 0.00 0.00 0.00 17 1015.1
20260904222003 35 43 1.6 4.8 0.00 0.00 0.00 16 1015.1
20260904221506 35 93 0.0 3.2 0.00 0.00 0.00 16 1015.2
20260904221006 35 32 1.6 6.4 0.00 0.00 0.00 16 1015.2
20260904220508 35 145 1.6 11.3 0.00 0.00 0.00 16 1015.2
20260904220012 35 196 1.6 11.3 0.00 0.00 0.00 17 1015.2
20260904215511 35 66 1.6 6.4 0.00 0.00 0.00 16 1015.2
20260904215013 35 241 1.6 9.7 0.00 0.00 0.00 16 1015.2
20260904214503 34 158 1.6 9.7 0.00 0.00 0.00 17 1015.2
20260904214003 34 14 1.6 9.7 0.00 0.00 0.00 17 1015.2
20260904213505 34 46 4.8 11.3 0.00 0.00 0.00 18 1015.2
20260904213007 34 61 1.6 16.1 0.00 0.00 0.00 18 1015.3
20260904212506 34 35 8.0 16.1 0.00 0.00 0.00 17 1015.2
20260904212010 34 196 1.6 9.7 0.00 0.00 0.00 18 1015.3
20260904211518 34 53 1.6 9.7 0.00 0.00 0.00 17 1015.4
20260904211013 34 169 3.2 14.5 0.00 0.00 0.00 18 1015.3
20260904210503 34 200 3.2 14.5 0.00 0.00 0.00 18 1015.4
20260904210004 34 113 1.6 12.9 0.00 0.00 0.00 17 1015.4
20260904205504 34 51 4.8 11.3 0.00 0.00 0.00 17 1015.5
20260904205007 34 115 1.6 12.9 0.00 0.00 0.00 17 1015.6
20260904204513 34 132 1.6 12.9 0.00 0.00 0.00 17 1015.6
20260904204009 34 106 3.2 17.7 0.00 0.00 0.00 17 1015.7
20260904203511 34 134 6.4 17.7 0.00 0.00 0.00 17 1015.7
20260904203030 34 140 3.2 8.0 0.00 0.00 0.00 18 1015.9
20260904202503 34 96 1.6 16.1 0.00 0.00 0.00 18 1016.0
20260904202003 34 97 1.6 16.1 0.00 0.00 0.00 17 1016.1
20260904201506 34 146 4.8 16.1 0.00 0.00 0.00 17 1016.3
20260904201008 33 100 3.2 14.5 0.00 0.00 0.00 17 1016.3
20260904200509 33 77 3.2 14.5 0.00 0.00 0.00 17 1016.3
20260904200037 33 95 1.6 9.7 0.00 0.00 0.00 17 1016.3
20260904195512 33 129 3.2 9.7 0.00 0.00 0.00 16 1016.4
20260904195019 33 67 3.2 9.7 0.00 0.00 0.00 17 1016.4
20260904194503 33 134 3.2 12.9 0.00 0.00 0.00 17 1016.4
20260904194009 34 79 3.2 12.9 0.00 0.00 0.00 16 1016.4
20260904193505 33 176 3.2 9.7 0.00 0.00 0.00 16 1016.3
20260904193012 33 334 1.6 11.3 0.00 0.00 0.00 17 1016.4
20260904192511 33 153 3.2 11.3 0.00 0.00 0.00 18 1016.4
20260904192012 33 173 1.6 8.0 0.00 0.00 0.00 17 1016.4
20260904191525 33 144 3.2 8.0 0.00 0.00 0.00 18 1016.5
20260904191014 33 115 3.2 11.3 0.00 0.00 0.00 18 1016.5
20260904190504 33 136 3.2 11.3 0.00 0.00 0.00 19 1016.6
20260904190004 32 157 3.2 12.9 0.00 0.00 0.00 19 1016.6
20260904185504 32 68 4.8 12.9 0.00 0.00 0.00 19 1016.6
20260904185008 32 232 3.2 12.9 0.00 0.00 0.00 19 1016.6
20260904184517 32 133 3.2 12.9 0.00 0.00 0.00 19 1016.7
20260904184016 32 175 3.2 12.9 0.00 0.00 0.00 20 1016.8
20260904183513 32 61 1.6 16.1 0.00 0.00 0.00 20 1016.9
20260904183028 31 24 3.2 16.1 0.00 0.00 0.00 20 1017.1
20260904182502 32 15 4.8 14.5 0.00 0.00 0.00 20 1017.2
20260904182009 32 23 1.6 8.0 0.00 0.00 0.00 20 1017.3
20260904181507 32 129 3.2 11.3 0.00 0.00 0.00 20 1017.3
20260904181007 32 222 1.6 11.3 0.00 0.00 0.00 20 1017.3
20260904180511 31 206 1.6 6.4 0.00 0.00 0.00 22 1017.4
20260904180024 31 209 1.6 8.0 0.00 0.00 0.00 22 1017.4
20260904175513 31 192 3.2 8.0 0.00 0.00 0.00 22 1017.4
20260904175014 30 146 3.2 8.0 0.00 0.00 0.00 22 1017.4
20260904174505 30 45 1.6 8.0 0.00 0.00 0.00 24 1017.5
20260904174005 30 36 1.6 12.9 0.00 0.00 0.00 25 1017.5
20260904173506 30 84 3.2 12.9 0.00 0.00 0.00 25 1017.6
20260904173011 30 98 4.8 9.7 0.00 0.00 0.00 25 1017.5
20260904172514 30 324 3.2 8.0 0.00 0.00 0.00 26 1017.5
20260904172013 29 352 1.6 8.0 0.00 0.00 0.00 27 1017.5
20260904171550 28 327 1.6 6.4 0.00 0.00 0.00 29 1017.7
20260904171014 28 34 3.2 8.0 0.00 0.00 0.00 29 1017.7
20260904170503 28 323 1.6 8.0 0.00 0.00 0.00 28 1017.7
20260904170007 28 319 1.6 6.4 0.00 0.00 0.00 29 1017.7
20260904165508 27 59 3.2 9.7 0.00 0.00 0.00 30 1017.8
20260904165010 27 49 1.6 9.7 0.00 0.00 0.00 32 1017.9
20260904164518 27 5 1.6 6.4 0.00 0.00 0.00 32 1017.8
20260904164017 27 24 3.2 6.4 0.00 0.00 0.00 33 1017.9
20260904163514 26 38 1.6 6.4 0.00 0.00 0.00 32 1018.0
20260904163046 26 116 1.6 4.8 0.00 0.00 0.00 31 1018.0
20260904162509 26 349 1.6 6.4 0.00 0.00 0.00 31 1018.1
20260904162004 26 66 1.6 6.4 0.00 0.00 0.00 33 1018.1
20260904161514 25 38 1.6 4.8 0.00 0.00 0.00 34 1018.1
20260904161011 25 65 0.0 4.8 0.00 0.00 0.00 34 1018.0
20260904160510 25 340 1.6 4.8 0.00 0.00 0.00 33 1018.0
20260904160029 25 5 1.6 4.8 0.00 0.00 0.00 34 1018.0
20260904155516 24 34 1.6 4.8 0.00 0.00 0.00 35 1018.0
20260904155013 24 327 0.0 6.4 0.00 0.00 0.00 35 1018.0
20260904154509 24 42 3.2 6.4 0.00 0.00 0.00 35 1017.9
20260904154009 23 331 3.2 6.4 0.00 0.00 0.00 35 1017.9
20260904153510 23 324 1.6 3.2 0.00 0.00 0.00 36 1017.9
20260904153025 23 9 1.6 4.8 0.00 0.00 0.00 36 1017.8
20260904152512 23 325 1.6 4.8 0.00 0.00 0.00 35 1017.8
20260904152003 22 37 1.6 4.8 0.00 0.00 0.00 35 1017.7
20260904151503 22 9 1.6 4.8 0.00 0.00 0.00 36 1017.7
20260904151006 21 342 1.6 3.2 0.00 0.00 0.00 36 1017.7
20260904150503 21 69 1.6 3.2 0.00 0.00 0.00 35 1017.7
20260904150017 21 302 0.0 4.8 0.00 0.00 0.00 38 1017.6
20260904145508 20 248 0.0 4.8 0.00 0.00 0.00 39 1017.7
20260904145012 19 310 0.0 3.2 0.00 0.00 0.00 43 1017.7
20260904144524 19 334 0.0 3.2 0.00 0.00 0.00 44 1017.7
20260904144003 18 352 0.0 3.2 0.00 0.00 0.00 45 1017.6
20260904143504 18 333 0.0 3.2 0.00 0.00 0.00 45 1017.7
20260904143006 18 324 0.0 3.2 0.00 0.00 0.00 47 1017.7
20260904142507 17 352 0.0 3.2 0.00 0.00 0.00 48 1017.6
20260904142006 17 352 0.0 3.2 0.00 0.00 0.00 49 1017.7
20260904141516 17 352 1.6 3.2 0.00 0.00 0.00 51 1017.7
20260904141011 16 28 0.0 3.2 0.00 0.00 0.00 55 1017.7
20260904140519 16 29 0.0 3.2 0.00 0.00 0.00 58 1017.6
20260904140003 16 48 0.0 3.2 0.00 0.00 0.00 60 1017.4
20260904135504 15 59 1.6 3.2 0.00 0.00 0.00 61 1017.4
20260904135004 15 60 1.6 3.2 0.00 0.00 0.00 62 1017.3
20260904134509 15 192 0.0 3.2 0.00 0.00 0.00 61 1017.2
20260904134010 14 192 0.0 3.2 0.00 0.00 0.00 61 1017.1
20260904133510 13 190 0.0 3.2 0.00 0.00 0.00 59 1017.0
20260904133024 13 194 1.6 3.2 0.00 0.00 0.00 58 1017.0
20260904132518 13 274 0.0 3.2 0.00 0.00 0.00 62 1017.0